Time,TemperatureF,DewpointF,PressureIn,WindDirection,WindDirectionDegrees,WindSpeedMPH,WindSpeedGustMPH,Humidity,HourlyPrecipIn,Conditions,Clouds,dailyrainin,SoftwareType,DateUTC
2013-05-08 00:11:00,50.2,49.7,29.71,South,180,0.0,-999.0,98,-99.99,,,0.00,Acu-Link.com,2013-05-08 05:11:00,
2013-05-08 00:26:00,50.2,49.7,29.71,East,90,0.0,-999.0,98,-99.99,,,0.00,Acu-Link.com,2013-05-08 05:26:00,
2013-05-08 00:41:00,50.0,49.5,29.72,South,180,0.0,-999.0,98,-99.99,,,0.00,Acu-Link.com,2013-05-08 05:41:00,
2013-05-08 00:56:00,50.4,49.9,29.71,North,0,0.0,-999.0,98,-99.99,,,0.00,Acu-Link.com,2013-05-08 05:56:00,
2013-05-08 01:11:00,50.2,49.7,29.71,North,0,0.0,-999.0,98,-99.99,,,0.00,Acu-Link.com,2013-05-08 06:11:00,
2013-05-08 01:26:00,50.0,49.5,29.71,North,0,0.0,-999.0,98,-99.99,,,0.00,Acu-Link.com,2013-05-08 06:26:00,
2013-05-08 01:42:00,49.6,49.1,29.71,North,0,0.0,-999.0,98,-99.99,,,0.00,Acu-Link.com,2013-05-08 06:42:00,
2013-05-08 01:57:00,49.5,49.0,29.71,North,0,0.0,-999.0,98,-99.99,,,0.00,Acu-Link.com,2013-05-08 06:57:00,
2013-05-08 02:12:00,48.9,48.4,29.71,North,0,0.0,-999.0,98,-99.99,,,0.00,Acu-Link.com,2013-05-08 07:12:00,
2013-05-08 02:27:00,48.7,48.2,29.71,North,0,0.0,-999.0,98,-99.99,,,0.00,Acu-Link.com,2013-05-08 07:27:00,
2013-05-08 02:42:00,48.7,48.2,29.71,North,0,0.0,-999.0,98,-99.99,,,0.00,Acu-Link.com,2013-05-08 07:42:00,
2013-05-08 02:57:00,48.0,47.5,29.71,North,0,0.0,-999.0,98,-99.99,,,0.00,Acu-Link.com,2013-05-08 07:57:00,
2013-05-08 03:13:00,47.8,47.3,29.71,North,0,0.0,-999.0,98,-99.99,,,0.00,Acu-Link.com,2013-05-08 08:13:00,
2013-05-08 03:28:00,47.7,47.2,29.72,North,0,0.0,-999.0,98,-99.99,,,0.00,Acu-Link.com,2013-05-08 08:28:00,
2013-05-08 03:43:00,47.8,47.3,29.72,North,0,0.0,-999.0,98,-99.99,,,0.00,Acu-Link.com,2013-05-08 08:43:00,
2013-05-08 03:58:00,47.8,47.3,29.72,North,0,0.0,-999.0,98,-99.99,,,0.00,Acu-Link.com,2013-05-08 08:58:00,
2013-05-08 04:13:00,48.4,47.9,29.72,North,0,0.0,-999.0,98,-99.99,,,0.00,Acu-Link.com,2013-05-08 09:13:00,
2013-05-08 04:29:00,49.3,48.8,29.73,North,0,0.0,-999.0,98,-99.99,,,0.00,Acu-Link.com,2013-05-08 09:29:00,
2013-05-08 04:44:00,48.7,48.2,29.73,North,0,0.0,-999.0,98,-99.99,,,0.00,Acu-Link.com,2013-05-08 09:44:00,
2013-05-08 04:59:00,48.2,47.7,29.73,North,0,0.0,-999.0,98,-99.99,,,0.00,Acu-Link.com,2013-05-08 09:59:00,
2013-05-08 05:14:00,47.8,47.3,29.73,North,0,0.0,-999.0,98,-99.99,,,0.00,Acu-Link.com,2013-05-08 10:14:00,
2013-05-08 05:29:00,47.7,47.2,29.74,North,0,0.0,-999.0,98,-99.99,,,0.00,Acu-Link.com,2013-05-08 10:29:00,
2013-05-08 05:44:00,47.3,46.8,29.75,North,0,0.0,-999.0,98,-99.99,,,0.00,Acu-Link.com,2013-05-08 10:44:00,
2013-05-08 06:00:00,46.9,46.4,29.75,North,0,0.0,-999.0,98,-99.99,,,0.00,Acu-Link.com,2013-05-08 11:00:00,
2013-05-08 06:15:00,47.5,47.0,29.76,North,0,0.0,-999.0,98,-99.99,,,0.00,Acu-Link.com,2013-05-08 11:15:00,
2013-05-08 06:30:00,50.2,49.7,29.77,North,0,0.0,-999.0,98,-99.99,,,0.00,Acu-Link.com,2013-05-08 11:30:00,
2013-05-08 06:45:00,52.3,51.8,29.77,ESE,112,0.0,-999.0,98,-99.99,,,0.00,Acu-Link.com,2013-05-08 11:45:00,
2013-05-08 07:00:00,54.7,54.1,29.78,North,0,0.0,-999.0,98,-99.99,,,0.00,Acu-Link.com,2013-05-08 12:00:00,
2013-05-08 07:15:00,58.6,58.0,29.78,East,90,0.0,-999.0,98,-99.99,,,0.00,Acu-Link.com,2013-05-08 12:15:00,
2013-05-08 07:30:00,61.7,61.1,29.79,SSW,202,0.0,-999.0,98,-99.99,,,0.00,Acu-Link.com,2013-05-08 12:30:00,
2013-05-08 07:45:00,63.3,62.7,29.79,WSW,247,0.0,-999.0,98,-99.99,,,0.00,Acu-Link.com,2013-05-08 12:45:00,
2013-05-08 08:00:00,64.4,63.8,29.79,SW,225,1.1,-999.0,98,-99.99,,,0.00,Acu-Link.com,2013-05-08 13:00:00,
2013-05-08 08:16:00,66.4,65.8,29.79,South,180,1.7,-999.0,98,-99.99,,,0.00,Acu-Link.com,2013-05-08 13:16:00,
2013-05-08 08:31:00,64.6,64.0,29.79,SW,225,2.7,-999.0,98,-99.99,,,0.00,Acu-Link.com,2013-05-08 13:31:00,
2013-05-08 08:46:00,66.0,65.4,29.80,South,180,1.1,-999.0,98,-99.99,,,0.00,Acu-Link.com,2013-05-08 13:46:00,
2013-05-08 09:01:00,66.7,66.1,29.80,SW,225,0.0,-999.0,98,-99.99,,,0.00,Acu-Link.com,2013-05-08 14:01:00,
2013-05-08 09:16:00,69.1,68.5,29.80,SW,225,0.0,-999.0,98,-99.99,,,0.00,Acu-Link.com,2013-05-08 14:16:00,
2013-05-08 09:31:00,69.8,69.2,29.79,South,180,1.7,-999.0,98,-99.99,,,0.00,Acu-Link.com,2013-05-08 14:31:00,
2013-05-08 09:46:00,70.5,69.9,29.80,SE,135,4.2,-999.0,98,-99.99,,,0.00,Acu-Link.com,2013-05-08 14:46:00,
2013-05-08 10:01:00,71.1,70.5,29.80,SSW,202,3.7,-999.0,98,-99.99,,,0.00,Acu-Link.com,2013-05-08 15:01:00,
2013-05-08 10:16:00,71.8,71.2,29.80,ENE,67,1.7,-999.0,98,-99.99,,,0.00,Acu-Link.com,2013-05-08 15:16:00,
2013-05-08 10:32:00,72.7,72.1,29.80,NNW,337,7.8,-999.0,98,-99.99,,,0.00,Acu-Link.com,2013-05-08 15:32:00,
2013-05-08 10:47:00,72.1,71.5,29.81,NW,315,2.2,-999.0,98,-99.99,,,0.00,Acu-Link.com,2013-05-08 15:47:00,
2013-05-08 11:02:00,74.3,73.7,29.80,SE,135,2.7,-999.0,98,-99.99,,,0.00,Acu-Link.com,2013-05-08 16:02:00,
2013-05-08 11:17:00,73.4,72.8,29.80,North,0,2.2,-999.0,98,-99.99,,,0.00,Acu-Link.com,2013-05-08 16:17:00,
2013-05-08 11:32:00,76.6,76.0,29.79,SW,225,2.2,-999.0,98,-99.99,,,0.00,Acu-Link.com,2013-05-08 16:32:00,
2013-05-08 11:47:00,76.6,76.0,29.79,NNW,337,4.7,-999.0,98,-99.99,,,0.00,Acu-Link.com,2013-05-08 16:47:00,
2013-05-08 12:02:00,76.6,76.0,29.79,West,270,4.2,-999.0,98,-99.99,,,0.00,Acu-Link.com,2013-05-08 17:02:00,
2013-05-08 12:17:00,77.2,76.6,29.78,WNW,292,3.2,-999.0,98,-99.99,,,0.00,Acu-Link.com,2013-05-08 17:17:00,
2013-05-08 12:32:00,75.6,75.0,29.77,NW,315,4.7,-999.0,98,-99.99,,,0.00,Acu-Link.com,2013-05-08 17:32:00,
2013-05-08 12:47:00,74.8,74.2,29.77,East,90,2.7,-999.0,98,-99.99,,,0.00,Acu-Link.com,2013-05-08 17:47:00,
2013-05-08 13:03:00,74.5,73.9,29.77,East,90,0.0,-999.0,98,-99.99,,,0.00,Acu-Link.com,2013-05-08 18:03:00,
2013-05-08 13:18:00,77.7,77.1,29.76,East,90,1.7,-999.0,98,-99.99,,,0.00,Acu-Link.com,2013-05-08 18:18:00,
2013-05-08 13:33:00,74.7,74.1,29.76,West,270,2.2,-999.0,98,-99.99,,,0.00,Acu-Link.com,2013-05-08 18:33:00,
2013-05-08 13:48:00,78.3,77.7,29.76,SSE,157,1.7,-999.0,98,-99.99,,,0.00,Acu-Link.com,2013-05-08 18:48:00,
2013-05-08 14:03:00,79.0,78.4,29.76,SSW,202,2.7,-999.0,98,-99.99,,,0.00,Acu-Link.com,2013-05-08 19:03:00,
2013-05-08 14:18:00,79.2,78.6,29.76,West,270,2.7,-999.0,98,-99.99,,,0.00,Acu-Link.com,2013-05-08 19:18:00,
2013-05-08 14:33:00,79.0,78.4,29.75,ESE,112,4.2,-999.0,98,-99.99,,,0.00,Acu-Link.com,2013-05-08 19:33:00,
2013-05-08 14:48:00,80.2,79.6,29.74,West,270,2.7,-999.0,98,-99.99,,,0.00,Acu-Link.com,2013-05-08 19:48:00,
2013-05-08 15:04:00,81.0,80.4,29.73,West,270,4.2,-999.0,98,-99.99,,,0.00,Acu-Link.com,2013-05-08 20:04:00,
2013-05-08 15:19:00,81.0,80.1,29.73,South,180,4.2,-999.0,97,-99.99,,,0.00,Acu-Link.com,2013-05-08 20:19:00,
2013-05-08 15:34:00,80.1,78.5,29.72,South,180,3.2,-999.0,95,-99.99,,,0.00,Acu-Link.com,2013-05-08 20:34:00,
2013-05-08 15:49:00,81.0,80.4,29.73,NW,315,2.2,-999.0,98,-99.99,,,0.00,Acu-Link.com,2013-05-08 20:49:00,
2013-05-08 16:04:00,81.5,80.2,29.72,SSW,202,2.2,-999.0,96,-99.99,,,0.00,Acu-Link.com,2013-05-08 21:04:00,
2013-05-08 16:19:00,78.6,78.0,29.72,WNW,292,4.2,-999.0,98,-99.99,,,0.00,Acu-Link.com,2013-05-08 21:19:00,
2013-05-08 16:34:00,79.7,79.1,29.71,WNW,292,0.0,-999.0,98,-99.99,,,0.00,Acu-Link.com,2013-05-08 21:34:00,
2013-05-08 16:49:00,77.7,77.1,29.71,SSW,202,2.2,-999.0,98,-99.99,,,0.00,Acu-Link.com,2013-05-08 21:49:00,
2013-05-08 17:04:00,79.0,78.4,29.71,NNE,22,1.1,-999.0,98,-99.99,,,0.00,Acu-Link.com,2013-05-08 22:04:00,
2013-05-08 17:19:00,80.1,79.2,29.71,NW,315,2.7,-999.0,97,-99.99,,,0.00,Acu-Link.com,2013-05-08 22:19:00,
2013-05-08 17:35:00,77.9,77.3,29.71,NNE,22,1.1,-999.0,98,-99.99,,,0.00,Acu-Link.com,2013-05-08 22:35:00,
2013-05-08 17:50:00,81.3,80.0,29.71,NNW,337,0.0,-999.0,96,-99.99,,,0.00,Acu-Link.com,2013-05-08 22:50:00,
2013-05-08 18:05:00,81.0,79.7,29.70,NNE,22,4.2,-999.0,96,-99.99,,,0.00,Acu-Link.com,2013-05-08 23:05:00,
2013-05-08 18:20:00,79.3,78.7,29.71,WNW,292,0.0,-999.0,98,-99.99,,,0.00,Acu-Link.com,2013-05-08 23:20:00,
2013-05-08 18:35:00,77.9,77.3,29.71,NNW,337,0.0,-999.0,98,-99.99,,,0.00,Acu-Link.com,2013-05-08 23:35:00,
2013-05-08 18:50:00,75.0,74.4,29.71,NNW,337,0.0,-999.0,98,-99.99,,,0.00,Acu-Link.com,2013-05-08 23:50:00,
2013-05-08 19:05:00,73.8,73.2,29.71,West,270,0.0,-999.0,98,-99.99,,,0.00,Acu-Link.com,2013-05-09 00:05:00,
2013-05-08 19:20:00,72.0,71.4,29.72,SSE,157,0.0,-999.0,98,-99.99,,,0.00,Acu-Link.com,2013-05-09 00:20:00,
2013-05-08 19:35:00,70.0,69.4,29.73,South,180,0.0,-999.0,98,-99.99,,,0.00,Acu-Link.com,2013-05-09 00:35:00,
2013-05-08 19:51:00,67.8,67.2,29.74,SSW,202,0.0,-999.0,98,-99.99,,,0.00,Acu-Link.com,2013-05-09 00:51:00,
2013-05-08 20:06:00,66.2,65.6,29.75,South,180,0.0,-999.0,98,-99.99,,,0.00,Acu-Link.com,2013-05-09 01:06:00,
2013-05-08 20:21:00,64.9,64.3,29.75,SSE,157,0.0,-999.0,98,-99.99,,,0.00,Acu-Link.com,2013-05-09 01:21:00,
2013-05-08 20:36:00,64.0,63.4,29.75,SSW,202,0.0,-999.0,98,-99.99,,,0.00,Acu-Link.com,2013-05-09 01:36:00,
2013-05-08 20:51:00,62.8,62.2,29.76,SSW,202,0.0,-999.0,98,-99.99,,,0.00,Acu-Link.com,2013-05-09 01:51:00,
2013-05-08 21:06:00,62.1,61.5,29.76,SSW,202,0.0,-999.0,98,-99.99,,,0.00,Acu-Link.com,2013-05-09 02:06:00,
2013-05-08 21:22:00,61.3,60.7,29.77,SSW,202,0.0,-999.0,98,-99.99,,,0.00,Acu-Link.com,2013-05-09 02:22:00,
2013-05-08 21:37:00,60.8,60.2,29.77,South,180,0.0,-999.0,98,-99.99,,,0.00,Acu-Link.com,2013-05-09 02:37:00,
2013-05-08 21:52:00,60.3,59.7,29.77,South,180,0.0,-999.0,98,-99.99,,,0.00,Acu-Link.com,2013-05-09 02:52:00,
2013-05-08 22:07:00,59.9,59.3,29.77,South,180,0.0,-999.0,98,-99.99,,,0.00,Acu-Link.com,2013-05-09 03:07:00,
2013-05-08 22:22:00,59.4,58.8,29.78,South,180,0.0,-999.0,98,-99.99,,,0.00,Acu-Link.com,2013-05-09 03:22:00,
2013-05-08 22:37:00,58.8,58.2,29.77,South,180,0.0,-999.0,98,-99.99,,,0.00,Acu-Link.com,2013-05-09 03:37:00,
2013-05-08 22:52:00,58.3,57.7,29.78,South,180,0.0,-999.0,98,-99.99,,,0.00,Acu-Link.com,2013-05-09 03:52:00,
2013-05-08 23:07:00,58.1,57.5,29.78,South,180,0.0,-999.0,98,-99.99,,,0.00,Acu-Link.com,2013-05-09 04:07:00,
2013-05-08 23:22:00,57.7,57.1,29.77,South,180,0.0,-999.0,98,-99.99,,,0.00,Acu-Link.com,2013-05-09 04:22:00,
2013-05-08 23:38:00,57.2,56.6,29.77,South,180,0.0,-999.0,98,-99.99,,,0.00,Acu-Link.com,2013-05-09 04:38:00,
2013-05-08 23:53:00,56.8,56.2,29.77,South,180,0.0,-999.0,98,-99.99,,,0.00,Acu-Link.com,2013-05-09 04:53:00,